Regional Weather Roundup
Issued by NWS

Home | Current Version | Previous Version | Text Only | Print | Product List | Glossary On
Versions: 1 2 3 4 5 6 7 8 9 10 11 12 13 14 15 16 17 18 19 20 21 22 23 24 25 26 27 28 29 30 31 32 33 34 35 36 37 38 39 40 41 42 43 44 45 46 47 48 49 50
099
ASUS44 KJAN 282310
RWRMS

MISSISSIPPI HOURLY WEATHER ROUNDUP
NATIONAL WEATHER SERVICE JACKSON MS
500 PM CST FRI NOV 28 2014

NOTE: "FAIR: INDICATES FEW OR NO CLOUDS BELOW 12,000 FEET WITH NO
SIGNIFICANT WEATHER AND/OR OBSTRUCTIONS TO VISIBILITY.

MSZ001>002-007>008-010>013-018>021-025>028-034>036-290000-
NORTHWEST MISSISSIPPI

CITY           SKY/WX    TMP DP  RH WIND       PRES   REMARKS
CLARKSDALE     FAIR      48  34  57 S8        30.19F
CLEVELAND      FAIR      50  37  61 S8        30.18F
GREENWOOD      CLEAR     50  25  37 S8        30.21F
GREENVILLE     CLEAR     52  31  44 S10       30.18F
GRENADA        FAIR      50  32  50 S5        30.22S
OLIVE BRANCH   PTCLDY    48  28  46 S8        30.16F
OXFORD         FAIR      46  28  49 SE6       30.21F
TUNICA         CLEAR     48  32  53 S9        30.17F
$$

MSZ003>006-009-014>017-022>024-029>033-037>039-290000-
NORTHEAST MISSISSIPPI

CITY           SKY/WX    TMP DP  RH WIND       PRES   REMARKS
COLUMBUS AFB   CLEAR     47  24  40 S3        30.25F
CORINTH        FAIR      46  27  46 S5        30.21S
GOLDN TRIANGLE CLEAR     48  27  43 S8        30.25F
STARKVILLE     FAIR      46  32  57 SE3       30.25S
TUPELO         CLEAR     46  28  49 S6        30.23F
$$

MSZ040-058-290000-
CENTRAL MISSISSIPPI

CITY           SKY/WX    TMP DP  RH WIND       PRES   REMARKS
JACKSON INTL   CLEAR     51  26  37 S7        30.24F
JACKSON HAWKNS CLEAR     53  26  35 S7        30.24F
MERIDIAN KEY   CLEAR     50  26  39 S3        30.27S
MERIDIAN NAS   CLEAR     51  26  37 SE5       30.27F
RAYMOND        FAIR      50  46  87 CALM      30.23F
VICKSBURG      CLEAR     54  31  41 S8        30.22F
$$

MSZ059>079-290000-
SOUTH MISSISSIPPI

CITY           SKY/WX    TMP DP  RH WIND       PRES   REMARKS
BROOKHAVEN     FAIR      55  30  38 S6        30.27S
HATTIESBURG    CLEAR     54  32  43 SE3       30.29S
MCCOMB         CLEAR     54  29  38 S7        30.27S
NATCHEZ        CLEAR     55  28  35 S8        30.24F
PINE BELT      CLEAR     52  28  40 CALM      30.29S
$$

MSZ080>082-290000-
COASTAL MISSISSIPPI

CITY           SKY/WX    TMP DP  RH WIND       PRES   REMARKS
BILOXI         CLEAR     52  33  47 S5        30.31R
PASCAGOULA     CLEAR     49  34  56 S3        30.31R
GULFPORT       CLEAR     51  36  56 S3        30.30S
$$



USA.gov is the U.S. government's official web portal to all federal, state and local government web resources and services.